Location: Bailleul
(50.3375°N, 2.8513°E)
Time: 16:34:13
(UTC+00:00)

NOAA 16 DEB - Pass Details

Date: 06 February 2022
Orbit: 838 x 864 km, 98.7° (Epoch: 15 May)

Event Time Altitude Azimuth Distance (km) Brightness Sun altitude
Exits shadow 20:13:20 35° 226° (SW) 1,335 ? -32.5°
Maximum altitude 20:14:47 42° 262° (W) 1,190 ? -32.7°
Drops below altitude 10° 20:19:57 10° 333° (NNW) 2,467 ? -33.5°
Sets 20:22:28 0° 341° (NNW) 3,408 ? -33.9°
